GW4034 Weather Reports


Display with metric or nautical units.
time (UTC)temp
F
wind
direction
speed
MPH
gust
MPH
rain 1hr
in
rain 24hr
in
rain mn
in
humidity
%
barometer
mb
20260902174119 71 162 0.0 0.0 0.00 0.01 0.01 81 1024.9
20260902173614 70 110 4.0 7.0 0.00 0.01 0.01 80 1024.9
20260902173109 70 41 3.0 3.0 0.00 0.01 0.01 81 1025.0
20260902172609 70 170 5.0 6.0 0.00 0.01 0.01 80 1024.9
20260902172103 70 190 2.0 2.0 0.00 0.01 0.01 82 1024.8
20260902171559 70 162 2.0 2.0 0.00 0.01 0.01 82 1024.8
20260902171054 70 149 4.0 6.0 0.00 0.01 0.01 82 1025.1
20260902170549 69 128 2.0 3.0 0.00 0.01 0.01 82 1025.0
20260902170045 69 157 2.0 3.0 0.00 0.01 0.01 83 1025.3
20260902165539 69 91 3.0 4.0 0.00 0.01 0.01 82 1025.2
20260902165033 69 171 3.0 3.0 0.00 0.01 0.01 82 1025.3
20260902164529 69 141 1.0 2.0 0.00 0.01 0.01 83 1025.5
20260902164027 69 140 3.0 4.0 0.00 0.01 0.01 83 1025.3
20260902163524 69 127 1.0 2.0 0.00 0.01 0.01 83 1025.5
20260902163021 69 133 3.0 3.0 0.00 0.01 0.01 83 1025.4
20260902162516 69 150 2.0 3.0 0.00 0.01 0.01 83 1025.1
20260902162011 68 165 1.0 2.0 0.00 0.01 0.01 83 1025.3
20260902161506 68 185 0.0 1.0 0.00 0.01 0.01 83 1025.2
20260902161002 68 104 4.0 4.0 0.00 0.01 0.01 83 1025.0
20260902160458 68 83 5.0 7.0 0.00 0.01 0.01 83 1025.3
20260902155955 69 181 1.0 1.0 0.00 0.01 0.01 83 1025.5
20260902155451 69 125 3.0 6.0 0.00 0.01 0.01 82 1025.2
20260902154945 69 153 2.0 2.0 0.00 0.01 0.01 82 1025.4
20260902154440 69 115 3.0 4.0 0.00 0.01 0.01 82 1025.3
20260902153939 69 133 6.0 7.0 0.00 0.01 0.01 81 1025.3
20260902153437 69 143 4.0 6.0 0.00 0.01 0.01 82 1025.5
20260902152934 69 148 5.0 7.0 0.00 0.01 0.01 82 1025.4
20260902152429 69 139 1.0 2.0 0.00 0.01 0.01 82 1025.5
20260902151924 69 171 2.0 3.0 0.00 0.01 0.01 83 1025.5
20260902151421 69 122 2.0 3.0 0.00 0.01 0.01 82 1025.6
20260902150914 69 132 3.0 4.0 0.00 0.01 0.01 82 1025.5
20260902150411 69 93 4.0 4.0 0.00 0.01 0.01 82 1025.6
20260902145910 68 93 3.0 6.0 0.00 0.01 0.01 82 1025.4
20260902145406 69 160 2.0 2.0 0.00 0.01 0.01 82 1025.4
20260902144900 69 76 5.0 7.0 0.00 0.01 0.01 82 1025.4
20260902144356 68 94 3.0 3.0 0.00 0.01 0.01 82 1025.2
20260902143851 69 102 4.0 4.0 0.00 0.01 0.01 82 1025.2
20260902143346 70 179 7.0 8.0 0.00 0.01 0.01 80 1025.4
20260902142842 69 166 2.0 3.0 0.00 0.01 0.01 81 1025.1
20260902142338 68 62 3.0 4.0 0.00 0.01 0.01 82 1025.3
20260902141833 68 109 2.0 3.0 0.00 0.01 0.01 82 1025.4
20260902141328 68 167 0.0 1.0 0.00 0.01 0.01 84 1025.5
20260902140827 67 229 0.0 1.0 0.00 0.01 0.01 84 1025.5
20260902140322 67 159 1.0 2.0 0.00 0.01 0.01 84 1025.8
20260902135822 68 111 1.0 1.0 0.00 0.01 0.01 84 1025.5
20260902135318 67 83 4.0 6.0 0.00 0.01 0.01 84 1025.5
20260902134817 67 170 0.0 0.0 0.00 0.01 0.01 85 1025.5
20260902134313 67 167 2.0 3.0 0.00 0.01 0.01 84 1025.3
20260902133808 67 130 1.0 1.0 0.00 0.01 0.01 85 1025.2
20260902133307 66 103 2.0 2.0 0.00 0.01 0.01 85 1025.0
20260902132802 66 73 1.0 2.0 0.00 0.01 0.01 85 1025.0
20260902132257 66 152 1.0 1.0 0.00 0.01 0.01 86 1024.9
20260902131753 66 45 2.0 2.0 0.00 0.01 0.01 86 1024.9
20260902131249 65 144 0.0 0.0 0.00 0.01 0.01 87 1025.0
20260902130749 65 70 3.0 4.0 0.00 0.01 0.01 87 1025.1
20260902130245 64 84 2.0 3.0 0.00 0.01 0.01 87 1025.1
20260902125740 64 222 1.0 2.0 0.00 0.01 0.01 88 1024.7
20260902125236 64 191 0.0 1.0 0.00 0.01 0.01 89 1025.0
20260902124732 64 127 1.0 1.0 0.00 0.01 0.01 89 1025.2
20260902124227 64 140 1.0 1.0 0.00 0.01 0.01 90 1024.9
20260902123722 64 199 0.0 1.0 0.00 0.01 0.01 90 1024.9
20260902123218 63 150 1.0 1.0 0.00 0.01 0.01 90 1025.0
20260902122717 63 147 1.0 1.0 0.00 0.01 0.01 90 1025.1
20260902122214 63 175 1.0 1.0 0.00 0.01 0.01 90 1025.0
20260902121713 63 113 1.0 2.0 0.00 0.01 0.01 90 1024.9
20260902121209 63 80 3.0 7.0 0.00 0.01 0.01 91 1024.7
20260902120704 63 91 2.0 2.0 0.00 0.01 0.01 91 1024.9
20260902120200 63 135 1.0 2.0 0.00 0.01 0.01 92 1025.0
20260902115700 63 270 3.0 6.0 0.00 0.01 0.01 92 1024.9
20260902115156 63 100 1.0 2.0 0.00 0.01 0.01 93 1024.7
20260902114652 62 160 2.0 2.0 0.00 0.01 0.01 93 1024.8
20260902114147 62 229 2.0 2.0 0.00 0.01 0.01 93 1024.9
20260902113642 62 147 0.0 1.0 0.00 0.01 0.01 93 1024.8
20260902113137 62 205 0.0 0.0 0.00 0.01 0.01 93 1024.9
20260902112632 62 199 0.0 0.0 0.00 0.01 0.01 94 1024.8
20260902112129 62 151 1.0 1.0 0.00 0.01 0.01 94 1024.9
20260902111625 62 83 2.0 3.0 0.00 0.01 0.01 94 1024.8
20260902111120 62 176 0.0 0.0 0.00 0.01 0.01 94 1024.6
20260902110616 62 92 1.0 2.0 0.00 0.01 0.01 94 1024.7
20260902110113 62 186 0.0 0.0 0.00 0.01 0.01 94 1024.7
20260902105606 62 151 0.0 1.0 0.00 0.01 0.01 94 1024.9
20260902105101 62 180 0.0 0.0 0.00 0.01 0.01 94 1024.9
20260902104556 62 132 0.0 1.0 0.00 0.01 0.01 94 1024.8
20260902104051 62 220 0.0 0.0 0.00 0.01 0.01 94 1024.6
20260902103546 62 135 0.0 0.0 0.00 0.01 0.01 94 1024.8
20260902103041 62 195 0.0 0.0 0.00 0.01 0.01 94 1024.3
20260902102538 62 201 0.0 1.0 0.00 0.01 0.01 94 1024.5
20260902102035 62 127 0.0 1.0 0.07 0.01 0.01 94 1024.4
20260902101530 62 177 2.0 3.0 0.07 0.01 0.01 94 1024.2
20260902101028 62 126 1.0 2.0 0.00 0.00 0.00 95 1024.1
20260902100523 63 109 1.0 2.0 0.00 0.00 0.00 94 1024.3
20260902100018 63 81 1.0 1.0 0.00 0.00 0.00 94 1024.2
20260902095517 63 111 1.0 1.0 0.00 0.00 0.00 94 1024.2
20260902095016 63 93 2.0 2.0 0.00 0.00 0.00 94 1024.2
20260902094512 63 110 2.0 4.0 0.00 0.00 0.00 94 1024.2
20260902094007 63 146 0.0 0.0 0.00 0.00 0.00 94 1024.2
20260902093502 63 82 3.0 4.0 0.00 0.00 0.00 94 1024.2
20260902093001 63 109 0.0 1.0 0.00 0.00 0.00 94 1024.2
20260902092456 63 204 0.0 0.0 0.00 0.00 0.00 94 1024.4
20260902091951 63 115 2.0 3.0 0.00 0.00 0.00 94 1024.2
20260902091446 63 167 1.0 2.0 0.00 0.00 0.00 94 1024.3
20260902090943 63 157 0.0 0.0 0.00 0.00 0.00 94 1024.2
20260902090437 63 115 0.0 1.0 0.00 0.00 0.00 94 1024.2
20260902085936 63 193 0.0 0.0 0.00 0.00 0.00 94 1024.0
20260902085432 63 74 1.0 3.0 0.00 0.00 0.00 94 1024.0
20260902084927 63 336 1.0 1.0 0.00 0.00 0.00 94 1024.2
20260902084423 63 231 0.0 0.0 0.00 0.00 0.00 94 1023.9
20260902083918 63 192 0.0 0.0 0.00 0.00 0.00 94 1024.0
20260902083413 63 131 2.0 3.0 0.00 0.00 0.00 93 1023.8
20260902082908 63 201 0.0 0.0 0.00 0.00 0.00 93 1023.9
20260902082403 63 121 1.0 1.0 0.00 0.00 0.00 93 1023.8
20260902081900 63 55 3.0 3.0 0.00 0.00 0.00 93 1023.7
20260902081356 63 143 0.0 0.0 0.00 0.00 0.00 93 1023.9
20260902080850 63 214 1.0 2.0 0.00 0.00 0.00 93 1023.4
20260902080347 63 103 1.0 1.0 0.00 0.00 0.00 94 1023.5
20260902075846 63 105 1.0 2.0 0.00 0.00 0.00 93 1023.4
20260902075343 64 201 0.0 0.0 0.00 0.00 0.00 94 1023.3
20260902074843 64 204 0.0 0.0 0.00 0.00 0.00 94 1023.2
20260902074338 63 139 1.0 1.0 0.00 0.00 0.00 94 1023.4
20260902073833 63 143 1.0 2.0 0.00 0.00 0.00 94 1023.4
20260902073330 63 178 0.0 0.0 0.00 0.00 0.00 94 1023.3
20260902072825 63 93 3.0 3.0 0.00 0.00 0.00 94 1023.3
20260902072320 63 127 0.0 1.0 0.00 0.00 0.00 94 1023.2
20260902071817 63 117 1.0 1.0 0.00 0.00 0.00 94 1023.2
20260902071312 63 339 0.0 1.0 0.00 0.00 0.00 94 1022.9
20260902070808 63 200 0.0 1.0 0.00 0.00 0.00 94 1023.1
20260902070308 63 144 1.0 1.0 0.00 0.00 0.00 94 1023.1
20260902065806 63 28 0.0 0.0 0.00 0.00 0.00 94 1023.1
20260902065302 63 190 0.0 0.0 0.00 0.00 0.00 94 1023.1
20260902064757 63 196 0.0 0.0 0.00 0.00 0.00 94 1023.1
20260902064253 63 218 0.0 0.0 0.00 0.00 0.00 94 1023.3
20260902063748 63 239 1.0 1.0 0.00 0.00 0.00 94 1023.3
20260902063243 63 189 1.0 1.0 0.00 0.00 0.00 94 1023.1
20260902062743 63 43 2.0 4.0 0.00 0.00 0.00 94 1023.0
20260902062238 63 138 0.0 0.0 0.00 0.00 0.00 94 1023.4
20260902061737 64 203 0.0 0.0 0.00 0.00 0.00 94 1023.3
20260902061232 64 154 1.0 2.0 0.00 0.00 0.00 94 1023.3
20260902060729 64 221 0.0 0.0 0.00 0.00 0.00 94 1023.4
20260902060225 64 193 0.0 0.0 0.00 0.00 0.00 94 1023.3
20260902055720 64 98 1.0 2.0 0.00 0.00 0.00 94 1023.6
20260902055216 64 187 0.0 0.0 0.00 0.00 0.00 94 1023.4
20260902054711 64 99 1.0 1.0 0.00 0.00 0.00 93 1023.5
20260902054207 64 205 0.0 0.0 0.00 0.00 0.00 93 1023.3
20260902053702 64 172 2.0 3.0 0.00 0.00 0.00 93 1023.5
20260902053202 64 176 0.0 0.0 0.00 0.00 0.00 93 1023.4
20260902052701 64 195 0.0 0.0 0.00 0.00 0.00 93 1023.4
20260902052156 64 174 0.0 0.0 0.00 0.00 0.00 93 1023.4
20260902051656 64 183 1.0 1.0 0.00 0.00 0.00 92 1023.5
20260902051151 64 150 0.0 1.0 0.00 0.00 0.00 92 1023.5
20260902050651 64 213 0.0 0.0 0.00 0.00 0.00 92 1023.3
20260902050146 64 92 2.0 2.0 0.00 0.00 0.00 92 1023.2
20260902045641 64 182 1.0 1.0 0.00 0.00 0.00 92 1023.4
20260902045138 64 187 0.0 0.0 0.00 0.00 0.00 92 1023.2
20260902044637 64 144 0.0 0.0 0.00 0.00 0.00 92 1023.3
20260902044134 64 176 0.0 1.0 0.00 0.00 0.00 92 1023.2
20260902043629 64 104 1.0 2.0 0.00 0.00 0.00 91 1023.3
20260902043124 65 96 1.0 1.0 0.00 0.00 0.00 91 1023.2
20260902042623 65 145 1.0 2.0 0.00 0.00 0.00 91 1023.1
20260902042119 65 318 2.0 3.0 0.00 0.00 0.00 91 1023.3
20260902041618 65 70 1.0 2.0 0.00 0.00 0.00 91 1023.1
20260902041113 65 145 0.0 1.0 0.00 0.00 0.00 91 1023.0
20260902040607 65 145 2.0 2.0 0.00 0.00 0.00 91 1022.8
20260902035600 65 107 3.0 4.0 0.00 1.01 1.01 91 1022.8
20260902035056 65 110 2.0 3.0 0.00 1.01 1.01 91 1022.9
20260902034555 65 182 0.0 1.0 0.00 1.01 1.01 90 1022.9
20260902034054 65 63 2.0 4.0 0.00 1.01 1.01 90 1022.8
20260902033554 65 140 1.0 1.0 0.00 1.01 1.01 90 1022.4
20260902033049 65 147 3.0 3.0 0.00 1.01 1.01 90 1022.8
20260902032548 65 180 0.0 0.0 0.00 1.01 1.01 90 1022.4
20260902032043 65 87 2.0 2.0 0.00 1.01 1.01 90 1022.4
20260902031537 66 208 1.0 1.0 0.00 1.01 1.01 90 1022.2
20260902031034 66 136 3.0 4.0 0.00 1.01 1.01 90 1022.2
20260902030534 65 130 1.0 2.0 0.00 1.01 1.01 90 1022.0
20260902030034 65 75 3.0 3.0 0.00 1.01 1.01 89 1022.2
20260902025528 65 64 4.0 4.0 0.00 1.01 1.01 89 1022.1
20260902025024 66 100 2.0 3.0 0.00 1.01 1.01 89 1022.4
20260902024519 66 68 2.0 2.0 0.00 1.01 1.01 89 1022.7
20260902024013 66 143 5.0 6.0 0.00 1.01 1.01 89 1022.8
20260902023509 66 87 2.0 3.0 0.00 1.01 1.01 89 1022.7
20260902023004 66 202 3.0 4.0 0.00 1.01 1.01 89 1022.2
20260902022458 66 198 2.0 2.0 0.00 1.01 1.01 89 1022.3
20260902021954 66 120 2.0 4.0 0.00 1.01 1.01 89 1022.3
20260902021449 66 86 2.0 4.0 0.00 1.01 1.01 89 1022.2
20260902020944 66 108 2.0 2.0 0.00 1.01 1.01 89 1022.0
20260902020440 66 160 1.0 1.0 0.00 1.01 1.01 89 1022.0
20260902015936 66 119 1.0 1.0 0.00 1.01 1.01 88 1021.9
20260902015431 66 113 1.0 2.0 0.00 1.01 1.01 88 1021.8
20260902014926 66 87 4.0 4.0 0.00 1.01 1.01 88 1021.6
20260902014423 66 88 3.0 4.0 0.00 1.01 1.01 88 1021.6
20260902013922 66 139 2.0 3.0 0.00 1.01 1.01 88 1021.3
20260902013418 66 134 4.0 4.0 0.00 1.01 1.01 88 1021.4
20260902012913 67 116 7.0 11.0 0.00 1.01 1.01 87 1021.5
20260902012408 67 79 2.0 3.0 0.00 1.01 1.01 87 1021.2
20260902011904 67 99 0.0 1.0 0.00 1.01 1.01 87 1021.4
20260902011359 67 99 3.0 4.0 0.00 1.01 1.01 87 1021.3
20260902010853 67 133 3.0 4.0 0.00 1.01 1.01 87 1020.9
20260902010347 67 201 3.0 4.0 0.00 1.01 1.01 87 1020.8
20260902005846 67 145 2.0 3.0 0.00 1.01 1.01 87 1020.9
20260902005341 67 158 3.0 6.0 0.00 1.01 1.01 87 1020.8
20260902004836 68 110 7.0 9.0 0.00 1.01 1.01 87 1020.9
20260902004331 68 65 0.0 0.0 0.00 1.01 1.01 87 1020.8
20260902003826 68 89 8.0 11.0 0.00 1.01 1.01 87 1020.8
20260902003321 68 83 7.0 8.0 0.00 1.01 1.01 87 1020.5
20260902002817 68 95 2.0 3.0 0.00 1.01 1.01 87 1020.6
20260902002316 68 116 1.0 2.0 0.00 1.01 1.01 87 1020.3
20260902001812 68 154 2.0 2.0 0.00 1.01 1.01 87 1020.3
20260902001307 68 104 2.0 2.0 0.00 1.01 1.01 87 1020.2
20260902000806 68 120 2.0 3.0 0.00 1.01 1.01 87 1020.5
20260902000301 68 128 5.0 14.0 0.00 1.01 1.01 87 1020.5
20260901235756 69 91 3.0 4.0 0.00 1.01 1.01 87 1020.6
20260901235251 69 81 3.0 6.0 0.00 1.01 1.01 87 1020.3
20260901234750 69 133 3.0 6.0 0.00 1.01 1.01 87 1020.3
20260901234239 69 72 1.0 1.0 0.00 1.01 1.01 87 1020.4
20260901233734 69 118 5.0 7.0 0.00 1.01 1.01 87 1020.3
20260901233230 69 143 6.0 10.0 0.00 1.01 1.01 87 1020.3
20260901232725 70 148 2.0 2.0 0.00 1.01 1.01 88 1020.4
20260901232220 70 97 3.0 4.0 0.00 1.01 1.01 88 1020.2
20260901231717 70 131 4.0 4.0 0.00 1.01 1.01 88 1020.1
20260901231213 70 112 2.0 2.0 0.00 1.01 1.01 89 1020.1
20260901230708 70 79 4.0 4.0 0.00 1.01 1.01 89 1020.0
20260901230207 70 90 2.0 4.0 0.00 1.01 1.01 89 1019.9
20260901225702 70 106 7.0 9.0 0.00 1.01 1.01 90 1019.9
20260901225156 71 67 4.0 6.0 0.00 1.01 1.01 91 1019.8
20260901224653 71 113 2.0 3.0 0.00 1.01 1.01 91 1019.4
20260901224149 71 74 7.0 9.0 0.00 1.01 1.01 92 1019.1
20260901223644 71 85 2.0 4.0 0.00 1.01 1.01 92 1019.2
20260901223139 71 170 1.0 2.0 0.00 1.01 1.01 92 1019.5
20260901222635 71 73 4.0 6.0 0.00 1.01 1.01 92 1019.1
20260901222131 71 146 5.0 7.0 0.00 1.01 1.01 92 1019.1
20260901221627 72 149 6.0 8.0 0.00 1.01 1.01 92 1018.9
20260901221123 72 127 5.0 7.0 0.00 1.01 1.01 92 1019.0
20260901220621 73 112 2.0 3.0 0.00 1.01 1.01 92 1019.1
20260901220122 73 141 3.0 4.0 0.00 1.01 1.01 92 1019.1
20260901215620 73 146 5.0 7.0 0.00 1.01 1.01 91 1019.0
20260901215119 74 44 1.0 2.0 0.00 1.01 1.01 91 1019.1
20260901214618 75 194 3.0 4.0 0.00 1.01 1.01 91 1018.9
20260901214113 75 92 2.0 2.0 0.00 1.01 1.01 90 1019.1
20260901213612 75 143 1.0 2.0 0.00 1.01 1.01 90 1019.0
20260901213107 76 73 5.0 6.0 0.00 1.01 1.01 89 1019.1
20260901212601 76 131 1.0 2.0 0.00 1.01 1.01 89 1019.2
20260901212058 76 166 2.0 2.0 0.00 1.01 1.01 89 1019.0
20260901211553 76 96 4.0 6.0 0.00 1.01 1.01 89 1019.2
20260901211049 76 64 2.0 2.0 0.00 1.01 1.01 89 1019.0
20260901210544 76 146 2.0 3.0 0.00 1.01 1.01 89 1018.9
20260901210041 76 182 1.0 1.0 0.00 1.01 1.01 88 1018.7
20260901205535 77 158 2.0 3.0 0.00 1.01 1.01 88 1018.8
20260901205029 77 199 0.0 1.0 0.00 1.01 1.01 89 1018.6
20260901204526 76 147 1.0 2.0 0.00 1.01 1.01 89 1018.6
20260901204021 76 161 4.0 6.0 0.00 1.01 1.01 89 1018.6
20260901203521 76 121 2.0 2.0 0.00 1.01 1.01 89 1018.6
20260901203016 76 192 1.0 1.0 0.00 1.01 1.01 89 1018.5
20260901202511 76 191 2.0 2.0 0.00 1.01 1.01 89 1018.7
20260901202007 76 197 0.0 0.0 0.00 1.01 1.01 89 1018.9
20260901201502 77 200 1.0 1.0 0.00 1.01 1.01 88 1018.8
20260901201002 77 164 1.0 1.0 0.00 1.01 1.01 88 1018.8
20260901200456 77 188 0.0 0.0 0.00 1.01 1.01 87 1018.8
20260901195955 77 202 0.0 1.0 0.00 1.01 1.01 87 1019.1
20260901195454 77 182 1.0 1.0 0.00 1.01 1.01 87 1018.9
20260901194948 78 181 2.0 2.0 0.00 1.01 1.01 87 1018.8
20260901194443 78 209 0.0 0.0 0.00 1.01 1.01 86 1018.7
20260901193940 78 194 1.0 1.0 0.00 1.01 1.01 87 1018.9
20260901193434 78 201 0.0 1.0 0.00 1.01 1.01 87 1018.6
20260901192933 77 206 0.0 1.0 0.00 1.01 1.01 88 1018.8
20260901192430 77 203 0.0 0.0 0.00 1.01 1.01 89 1018.8
20260901191925 76 172 0.0 1.0 0.00 1.01 1.01 89 1018.8
20260901191422 76 208 0.0 0.0 0.00 1.01 1.01 90 1018.8
20260901190916 76 172 1.0 2.0 0.00 1.01 1.01 92 1018.8
20260901190411 75 205 0.0 0.0 0.00 1.01 1.01 93 1018.7
20260901185909 76 181 0.0 0.0 0.00 1.01 1.01 95 1018.6
20260901185409 75 179 0.0 0.0 0.00 1.01 1.01 96 1018.7
20260901184903 75 153 1.0 1.0 0.00 1.01 1.01 96 1018.5
20260901184359 75 169 0.0 0.0 0.00 1.01 1.01 96 1018.7
20260901183854 75 164 3.0 3.0 0.00 1.01 1.01 96 1018.7
20260901183353 75 176 2.0 2.0 0.00 1.01 1.01 96 1018.9
20260901182849 75 193 1.0 1.0 0.00 1.01 1.01 97 1019.0
20260901182344 75 187 1.0 1.0 0.00 1.01 1.01 97 1019.0
20260901181839 74 236 0.0 1.0 0.00 1.01 1.01 97 1019.1
20260901181333 74 165 0.0 0.0 0.00 1.01 1.01 97 1019.0
20260901180832 74 160 0.0 0.0 0.00 1.01 1.01 97 1019.1
20260901180331 74 162 1.0 1.0 0.00 1.01 1.01 97 1018.9
20260901175825 74 200 0.0 0.0 0.00 1.01 1.01 97 1019.1
20260901175319 74 187 1.0 1.0 0.00 1.01 1.01 97 1019.0
20260901174815 74 180 1.0 2.0 0.00 1.01 1.01 97 1019.0
20260901174310 74 181 3.0 3.0 0.00 1.01 1.01 97 1018.9